Location: Unspecified
(0.0000°N, 0.0000°E)
Time: 07:10:16
(UTC+00:00)

Vanguard 1 Rocket - All Passes

Search period start: 26 June 2017 00:00
Search period end: 06 July 2017 00:00
Orbit: 651 x 4226 km, 34.3° (Epoch: 24 June)

Date Brightness Start Highest point End Pass type
(mag) Time Alt. Az. Time Alt. Az. Time Alt. Az.
26 Jun - 07:36:37 10° S 07:39:26 16° SE 07:42:24 10° ESE daylight
26 Jun - 09:59:43 10° WSW 10:04:18 43° NNW 10:11:23 10° NE daylight
26 Jun - 12:29:12 10° NW 12:33:06 13° N 12:38:04 10° NNE daylight
26 Jun - 15:00:28 10° NNW 15:07:54 14° NNE 15:17:17 10° NE daylight
26 Jun - 17:26:56 10° NNW 17:45:38 33° NNE 18:07:30 10° E daylight
26 Jun - 19:55:17 10° NW 20:21:12 74° NE 20:42:52 10° ESE visible
26 Jun - 22:29:26 10° WNW 22:53:54 51° SW 23:09:44 10° SSE visible
27 Jun - 01:16:48 10° WSW 01:25:01 14° SSW 01:31:20 10° S night (unlit)
27 Jun - 08:49:00 10° SW 08:53:23 82° SE 08:59:16 10° NE daylight
27 Jun - 11:16:03 10° WNW 11:20:04 17° NNW 11:25:31 10° NNE daylight
27 Jun - 13:49:45 10° N 13:52:08 11° N 13:54:45 10° NNE daylight
27 Jun - 16:15:17 10° NNW 16:29:07 23° NNE 16:47:01 10° ENE daylight
27 Jun - 18:42:00 10° NW 19:05:16 55° NE 19:28:43 10° ESE visible
27 Jun - 21:12:50 10° WNW 21:39:18 72° SW 21:58:28 10° SE visible
27 Jun - 23:53:30 10° W 00:11:01 27° SW 00:22:44 10° SSE visible
28 Jun - 07:38:54 10° SSW 07:42:48 29° SE 07:46:56 10° E daylight
28 Jun - 10:03:51 10° W 10:08:00 26° NNW 10:13:51 10° NNE daylight
28 Jun - 15:04:28 10° NNW 15:12:46 15° NNE 15:23:26 10° NE daylight
28 Jun - 17:29:43 10° NNW 17:49:13 40° NE 18:12:21 10° E daylight
28 Jun - 19:58:04 10° NW 20:23:58 86° NE 20:46:08 10° SE visible
28 Jun - 22:33:28 10° WNW 22:56:47 42° SW 23:12:31 10° SSE visible
29 Jun - 01:24:33 10° SW 01:29:08 11° SSW 01:33:04 10° S night (unlit)
29 Jun - 06:30:02 10° S 06:31:42 12° SSE 06:33:18 10° SE daylight
29 Jun - 08:52:30 10° WSW 08:56:47 54° NW 09:02:23 10° NE daylight
29 Jun - 11:22:33 10° NNW 11:24:13 11° NNW 11:26:05 10° N daylight
29 Jun - 16:18:17 10° NNW 16:33:13 27° NNE 16:52:58 10° E daylight
29 Jun - 18:44:42 10° NW 19:08:12 65° NE 19:32:24 10° ESE visible
29 Jun - 21:16:10 10° WNW 21:42:01 61° SW 22:01:21 10° SE visible
29 Jun - 23:59:18 10° WSW 00:14:37 22° SSW 00:25:23 10° SSE visible
30 Jun - 07:41:45 10° SW 07:46:09 54° SE 07:50:47 10° ENE daylight
30 Jun - 10:08:41 10° WNW 10:11:49 16° NNW 10:15:46 10° NNE daylight
30 Jun - 15:07:46 10° NNW 15:17:23 17° NNE 15:30:06 10° ENE daylight
30 Jun - 17:32:26 10° NNW 17:52:25 47° NE 18:16:43 10° ESE daylight
30 Jun - 20:01:02 10° NW 20:26:39 82° SW 20:49:12 10° SE visible
30 Jun - 22:38:01 10° W 22:59:54 35° SW 23:15:15 10° SSE visible
01 Jul - 06:31:31 10° SSW 06:35:20 21° SSE 06:38:41 10° E daylight
01 Jul - 08:56:25 10° W 09:00:18 30° NNW 09:05:07 10° NNE daylight
01 Jul - 16:21:05 10° NNW 16:36:54 32° NE 16:58:22 10° E daylight
01 Jul - 18:47:29 10° NW 19:10:58 76° NE 19:35:46 10° ESE visible
01 Jul - 21:19:52 10° WNW 21:44:50 52° SW 22:04:09 10° SE visible
02 Jul - 00:05:43 10° WSW 00:18:35 18° SSW 00:28:06 10° S visible
02 Jul - 05:22:32 10° S 05:23:41 11° SSE 05:24:47 10° SSE visible
02 Jul - 07:44:58 10° WSW 07:49:32 79° NW 07:54:13 10° NE daylight
02 Jul - 15:10:42 10° NNW 15:21:37 20° NNE 15:36:40 10° ENE daylight
02 Jul - 17:35:11 10° NW 17:55:23 56° NE 18:20:39 10° ESE daylight
02 Jul - 20:04:14 10° WNW 20:29:21 71° SW 20:52:05 10° SE visible
02 Jul - 22:43:09 10° W 23:03:21 29° SSW 23:18:01 10° SSE visible
03 Jul - 06:34:00 10° SW 06:38:52 37° SSE 06:42:56 10° ENE daylight
03 Jul - 09:00:57 10° WNW 09:03:55 17° NNW 09:07:20 10° NNE daylight
03 Jul - 14:02:33 10° N 14:06:32 11° NNE 14:11:08 10° NE daylight
03 Jul - 16:23:51 10° NNW 16:40:13 39° NE 17:03:12 10° E daylight
03 Jul - 18:50:25 10° NW 19:13:39 88° NE 19:38:54 10° SE visible
03 Jul - 21:23:59 10° W 21:47:53 43° SW 22:06:53 10° SSE visible
04 Jul - 00:12:30 10° SW 00:22:58 15° SSW 00:31:02 10° S visible
04 Jul - 05:23:17 10° SSW 05:27:34 18° SSE 05:30:56 10° ESE visible
04 Jul - 07:48:35 10° WSW 07:52:55 41° NW 07:57:16 10° NE daylight
04 Jul - 15:13:26 10° NNW 15:25:27 25° NE 15:42:45 10° E daylight
04 Jul - 17:37:59 10° NW 17:58:10 66° NE 18:24:12 10° ESE daylight
04 Jul - 20:07:42 10° WNW 20:32:09 60° SW 20:54:52 10° SE visible
04 Jul - 22:48:51 10° WSW 23:07:11 24° SSW 23:20:52 10° SSE visible
05 Jul - 04:12:48 10° S 04:15:23 12° SSE 04:17:37 10° SE visible
05 Jul - 06:36:55 10° SW 06:42:19 70° SE 06:46:39 10° ENE daylight
05 Jul - 14:04:39 10° N 14:10:53 14° NNE 14:18:50 10° NE daylight
05 Jul - 16:26:35 10° NNW 16:43:15 47° NE 17:07:30 10° ESE daylight
05 Jul - 18:53:32 10° WNW 19:16:21 80° SW 19:41:49 10° SE visible
05 Jul - 21:28:35 10° W 21:51:13 36° SSW 22:09:39 10° SSE visible
